Time,TemperatureF,DewpointF,PressureIn,WindDirection,WindDirectionDegrees,WindSpeedMPH,WindSpeedGustMPH,Humidity,HourlyPrecipIn,Conditions,Clouds,dailyrainin,SoftwareType,DateUTC
2013-10-04 00:00:00,63.3,62.4,30.10,SSW,192,0.0,0.0,97,0.00,,,0.00,Wunderground v.1.15,2013-10-04 04:00:00,
2013-10-04 01:00:00,62.2,61.3,30.09,SSW,192,0.0,0.0,97,0.00,,,0.00,Wunderground v.1.15,2013-10-04 05:00:00,
2013-10-04 01:10:00,62.0,61.1,30.09,SSW,192,0.0,0.0,97,0.00,,,0.00,Wunderground v.1.15,2013-10-04 05:10:00,
2013-10-04 01:20:00,61.7,60.8,30.09,SSW,192,0.0,0.0,97,0.00,,,0.00,Wunderground v.1.15,2013-10-04 05:20:00,
2013-10-04 01:30:00,61.6,60.7,30.10,SSW,192,0.0,0.0,97,0.00,,,0.00,Wunderground v.1.15,2013-10-04 05:30:00,
2013-10-04 01:40:00,61.3,60.4,30.09,SSW,192,0.0,0.0,97,0.00,,,0.00,Wunderground v.1.15,2013-10-04 05:40:00,
2013-10-04 01:50:00,61.1,60.2,30.09,SSW,192,0.0,0.0,97,0.00,,,0.00,Wunderground v.1.15,2013-10-04 05:50:00,
2013-10-04 02:00:00,60.8,59.9,30.09,SSW,192,0.0,0.0,97,0.00,,,0.00,Wunderground v.1.15,2013-10-04 06:00:00,
2013-10-04 02:10:00,60.6,59.7,30.09,SSW,192,0.0,0.0,97,0.00,,,0.00,Wunderground v.1.15,2013-10-04 06:10:00,
2013-10-04 02:20:00,60.4,59.5,30.09,SSW,192,0.0,0.0,97,0.00,,,0.00,Wunderground v.1.15,2013-10-04 06:20:00,
2013-10-04 02:30:00,60.3,59.4,30.10,SSW,192,0.0,0.0,97,0.00,,,0.00,Wunderground v.1.15,2013-10-04 06:30:00,
2013-10-04 02:40:00,60.1,59.2,30.09,SSW,192,0.0,0.0,97,0.00,,,0.00,Wunderground v.1.15,2013-10-04 06:40:00,
2013-10-04 02:50:00,60.0,59.4,30.09,SSW,192,0.0,0.0,98,0.00,,,0.00,Wunderground v.1.15,2013-10-04 06:50:00,
2013-10-04 03:00:00,60.0,59.4,30.09,SSW,192,0.0,0.0,98,0.00,,,0.00,Wunderground v.1.15,2013-10-04 07:00:00,
2013-10-04 03:10:00,59.8,59.2,30.08,SSW,192,0.0,0.0,98,0.00,,,0.00,Wunderground v.1.15,2013-10-04 07:10:00,
2013-10-04 03:20:00,59.7,59.1,30.08,SSW,192,0.0,0.0,98,0.00,,,0.00,Wunderground v.1.15,2013-10-04 07:20:00,
2013-10-04 03:30:00,59.5,58.9,30.08,SSW,192,0.0,0.0,98,0.00,,,0.00,Wunderground v.1.15,2013-10-04 07:30:00,
2013-10-04 03:40:00,59.4,58.8,30.08,SSW,192,0.0,0.0,98,0.00,,,0.00,Wunderground v.1.15,2013-10-04 07:40:00,
2013-10-04 03:50:00,59.3,58.7,30.08,SSW,192,0.0,0.0,98,0.00,,,0.00,Wunderground v.1.15,2013-10-04 07:50:00,
2013-10-04 04:00:00,59.2,58.6,30.08,SSW,192,0.0,0.0,98,0.00,,,0.00,Wunderground v.1.15,2013-10-04 08:00:00,
2013-10-04 04:10:00,59.0,58.4,30.08,SSW,192,0.0,0.0,98,0.00,,,0.00,Wunderground v.1.15,2013-10-04 08:10:00,
2013-10-04 04:20:00,58.9,58.3,30.08,SSW,192,0.0,0.0,98,0.00,,,0.00,Wunderground v.1.15,2013-10-04 08:20:00,
2013-10-04 04:30:00,58.7,58.1,30.08,SSW,192,0.0,0.0,98,0.00,,,0.00,Wunderground v.1.15,2013-10-04 08:30:00,
2013-10-04 04:40:00,58.6,58.0,30.08,SSW,192,0.0,0.0,98,0.00,,,0.00,Wunderground v.1.15,2013-10-04 08:40:00,
2013-10-04 04:50:00,58.6,58.0,30.08,SSW,192,0.0,0.0,98,0.00,,,0.00,Wunderground v.1.15,2013-10-04 08:50:00,
2013-10-04 05:00:00,58.5,57.9,30.09,SSW,192,0.0,0.0,98,0.00,,,0.00,Wunderground v.1.15,2013-10-04 09:00:00,
2013-10-04 05:10:00,58.3,57.7,30.09,SSW,192,0.0,0.0,98,0.00,,,0.00,Wunderground v.1.15,2013-10-04 09:10:00,
2013-10-04 05:20:00,58.2,57.6,30.09,SSW,192,0.0,0.0,98,0.00,,,0.00,Wunderground v.1.15,2013-10-04 09:20:00,
2013-10-04 05:30:00,58.0,57.4,30.09,SSW,192,0.0,0.0,98,0.00,,,0.00,Wunderground v.1.15,2013-10-04 09:30:00,
2013-10-04 05:40:00,57.9,57.3,30.09,SSW,192,0.0,0.0,98,0.00,,,0.00,Wunderground v.1.15,2013-10-04 09:40:00,
2013-10-04 05:50:00,58.2,57.6,30.09,SSW,192,0.0,0.0,98,0.00,,,0.00,Wunderground v.1.15,2013-10-04 09:50:00,
2013-10-04 06:00:00,58.4,57.8,30.09,SSW,192,0.0,0.0,98,0.00,,,0.00,Wunderground v.1.15,2013-10-04 10:00:00,
2013-10-04 06:10:00,58.4,57.8,30.09,SSW,192,0.0,0.0,98,0.00,,,0.00,Wunderground v.1.15,2013-10-04 10:10:00,
2013-10-04 06:20:00,58.1,57.5,30.09,SSW,192,0.0,0.0,98,0.00,,,0.00,Wunderground v.1.15,2013-10-04 10:20:00,
2013-10-04 06:30:00,57.9,57.3,30.10,SSW,192,0.0,0.0,98,0.00,,,0.00,Wunderground v.1.15,2013-10-04 10:30:00,
2013-10-04 06:40:00,57.8,57.2,30.10,SSW,192,0.0,0.0,98,0.00,,,0.00,Wunderground v.1.15,2013-10-04 10:40:00,
2013-10-04 06:50:00,57.8,57.2,30.10,SSW,192,0.0,0.0,98,0.00,,,0.00,Wunderground v.1.15,2013-10-04 10:50:00,
2013-10-04 07:00:00,57.9,57.3,30.10,SSW,192,0.0,0.0,98,0.00,,,0.00,Wunderground v.1.15,2013-10-04 11:00:00,
2013-10-04 07:10:00,57.8,57.2,30.11,SSW,192,0.0,0.0,98,0.00,,,0.00,Wunderground v.1.15,2013-10-04 11:10:00,
2013-10-04 07:20:00,57.7,57.1,30.11,SSW,192,0.0,0.0,98,0.00,,,0.00,Wunderground v.1.15,2013-10-04 11:20:00,
2013-10-04 07:30:00,57.6,57.0,30.11,SSW,192,0.0,0.0,98,0.00,,,0.00,Wunderground v.1.15,2013-10-04 11:30:00,
2013-10-04 07:40:00,57.7,57.1,30.11,SSW,192,0.0,0.0,98,0.00,,,0.00,Wunderground v.1.15,2013-10-04 11:40:00,
2013-10-04 07:50:00,58.2,57.9,30.12,SSW,192,0.0,0.0,99,0.00,,,0.00,Wunderground v.1.15,2013-10-04 11:50:00,
2013-10-04 08:00:00,58.5,58.2,30.12,SSW,192,0.0,0.0,99,0.00,,,0.00,Wunderground v.1.15,2013-10-04 12:00:00,
2013-10-04 08:10:00,58.6,58.3,30.12,SSW,192,0.0,0.0,99,0.00,,,0.00,Wunderground v.1.15,2013-10-04 12:10:00,
2013-10-04 08:20:00,58.8,58.5,30.13,SSW,192,0.0,0.0,99,0.00,,,0.00,Wunderground v.1.15,2013-10-04 12:20:00,
2013-10-04 08:30:00,59.2,58.9,30.13,SSW,192,0.0,0.0,99,0.00,,,0.00,Wunderground v.1.15,2013-10-04 12:30:00,
2013-10-04 08:40:00,60.3,60.0,30.13,SSW,192,0.0,0.0,99,0.00,,,0.00,Wunderground v.1.15,2013-10-04 12:40:00,
2013-10-04 08:50:00,61.7,61.4,30.13,SSW,192,0.0,0.0,99,0.00,,,0.00,Wunderground v.1.15,2013-10-04 12:50:00,
2013-10-04 09:00:00,62.8,62.5,30.13,SSW,192,0.0,0.0,99,0.00,,,0.00,Wunderground v.1.15,2013-10-04 13:00:00,
2013-10-04 09:10:00,64.1,63.8,30.13,SSW,192,1.0,1.0,99,0.00,,,0.01,Wunderground v.1.15,2013-10-04 13:10:00,
2013-10-04 09:20:00,65.0,63.8,30.13,SSW,192,0.0,0.0,96,0.00,,,0.01,Wunderground v.1.15,2013-10-04 13:20:00,
2013-10-04 09:30:00,66.6,64.8,30.14,SSW,192,0.0,0.0,94,0.00,,,0.01,Wunderground v.1.15,2013-10-04 13:30:00,
2013-10-04 09:40:00,68.0,65.3,30.14,SSW,192,0.0,1.0,91,0.00,,,0.01,Wunderground v.1.15,2013-10-04 13:40:00,
2013-10-04 09:50:00,69.2,65.8,30.14,SSW,192,0.0,1.0,89,0.00,,,0.01,Wunderground v.1.15,2013-10-04 13:50:00,
2013-10-04 10:00:00,70.4,66.3,30.14,SSW,192,0.0,0.0,87,0.00,,,0.01,Wunderground v.1.15,2013-10-04 14:00:00,
2013-10-04 10:10:00,71.4,67.0,30.14,SSW,192,0.0,0.0,86,0.00,,,0.01,Wunderground v.1.15,2013-10-04 14:10:00,
2013-10-04 10:20:00,73.2,67.7,30.13,SSW,192,1.0,1.0,83,0.00,,,0.01,Wunderground v.1.15,2013-10-04 14:20:00,
2013-10-04 10:30:00,74.4,68.5,30.13,SSW,192,0.0,1.0,82,0.00,,,0.01,Wunderground v.1.15,2013-10-04 14:30:00,
2013-10-04 10:40:00,76.0,67.9,30.13,SSE,155,1.0,2.0,76,0.00,,,0.01,Wunderground v.1.15,2013-10-04 14:40:00,
2013-10-04 10:50:00,77.2,69.0,30.13,SSE,151,0.0,2.0,76,0.00,,,0.01,Wunderground v.1.15,2013-10-04 14:50:00,
2013-10-04 11:00:00,78.3,67.7,30.12,SSE,155,1.0,1.0,70,0.00,,,0.01,Wunderground v.1.15,2013-10-04 15:00:00,
2013-10-04 11:10:00,79.2,67.7,30.12,SSE,155,0.0,0.0,68,0.00,,,0.01,Wunderground v.1.15,2013-10-04 15:10:00,
2013-10-04 11:20:00,79.8,67.9,30.12,SSE,151,1.0,2.0,67,0.00,,,0.01,Wunderground v.1.15,2013-10-04 15:20:00,
2013-10-04 11:30:00,80.4,67.6,30.12,SSE,151,0.0,0.0,65,0.00,,,0.01,Wunderground v.1.15,2013-10-04 15:30:00,
2013-10-04 11:40:00,80.7,66.5,30.12,SSE,161,1.0,3.0,62,0.00,,,0.01,Wunderground v.1.15,2013-10-04 15:40:00,
2013-10-04 11:50:00,81.2,68.8,30.12,SSW,209,1.0,1.0,66,0.00,,,0.01,Wunderground v.1.15,2013-10-04 15:50:00,
2013-10-04 12:00:00,82.0,66.7,30.12,SSW,209,1.0,2.0,60,0.00,,,0.01,Wunderground v.1.15,2013-10-04 16:00:00,
2013-10-04 12:10:00,83.2,66.4,30.12,ESE,115,1.0,3.0,57,0.00,,,0.01,Wunderground v.1.15,2013-10-04 16:10:00,
2013-10-04 12:20:00,84.3,66.4,30.11,SW,222,1.0,1.0,55,0.00,,,0.01,Wunderground v.1.15,2013-10-04 16:20:00,
2013-10-04 12:30:00,84.2,65.8,30.11,NNW,340,1.0,1.0,54,0.00,,,0.01,Wunderground v.1.15,2013-10-04 16:30:00,
2013-10-04 12:40:00,84.0,65.6,30.10,North,349,2.0,4.0,54,0.00,,,0.01,Wunderground v.1.15,2013-10-04 16:40:00,
2013-10-04 12:50:00,83.6,65.2,30.10,NNW,332,1.0,4.0,54,0.00,,,0.01,Wunderground v.1.15,2013-10-04 16:50:00,
2013-10-04 13:10:00,85.1,65.5,30.09,NNW,342,1.0,2.0,52,0.00,,,0.01,Wunderground v.1.15,2013-10-04 17:10:00,
2013-10-04 13:20:00,83.7,65.3,30.08,NNW,346,2.0,2.0,54,0.00,,,0.01,Wunderground v.1.15,2013-10-04 17:20:00,
2013-10-04 13:30:00,83.3,65.4,30.08,NW,322,2.0,3.0,55,0.00,,,0.01,Wunderground v.1.15,2013-10-04 17:30:00,
2013-10-04 14:10:00,84.1,64.6,30.07,NW,319,2.0,4.0,52,0.00,,,0.01,Wunderground v.1.15,2013-10-04 18:10:00,
2013-10-04 14:20:00,84.1,65.7,30.06,South,182,3.0,3.0,54,0.00,,,0.01,Wunderground v.1.15,2013-10-04 18:20:00,
2013-10-04 14:30:00,84.7,64.6,30.06,NNW,330,2.0,3.0,51,0.00,,,0.01,Wunderground v.1.15,2013-10-04 18:30:00,
2013-10-04 14:40:00,85.0,64.3,30.06,ENE,71,2.0,2.0,50,0.00,,,0.01,Wunderground v.1.15,2013-10-04 18:40:00,
2013-10-04 14:50:00,85.6,66.0,30.06,NNW,339,1.0,7.0,52,0.00,,,0.01,Wunderground v.1.15,2013-10-04 18:50:00,
2013-10-04 15:00:00,86.2,65.4,30.06,NW,326,1.0,2.0,50,0.00,,,0.01,Wunderground v.1.15,2013-10-04 19:00:00,
2013-10-04 15:10:00,86.4,64.4,30.06,NNW,336,1.0,1.0,48,0.00,,,0.01,Wunderground v.1.15,2013-10-04 19:10:00,
2013-10-04 15:20:00,86.7,65.3,30.06,NW,323,1.0,1.0,49,0.00,,,0.01,Wunderground v.1.15,2013-10-04 19:20:00,
2013-10-04 15:30:00,86.6,65.2,30.05,East,94,1.0,1.0,49,0.00,,,0.01,Wunderground v.1.15,2013-10-04 19:30:00,
2013-10-04 15:40:00,87.8,65.1,30.05,SSE,156,1.0,8.0,47,0.00,,,0.01,Wunderground v.1.15,2013-10-04 19:40:00,
2013-10-04 15:50:00,87.5,66.6,30.05,SSE,158,1.0,8.0,50,0.00,,,0.01,Wunderground v.1.15,2013-10-04 19:50:00,
2013-10-04 16:00:00,87.8,65.1,30.05,SW,230,1.0,1.0,47,0.00,,,0.01,Wunderground v.1.15,2013-10-04 20:00:00,
2013-10-04 16:10:00,87.9,65.2,30.05,SW,228,2.0,2.0,47,0.00,,,0.01,Wunderground v.1.15,2013-10-04 20:10:00,
2013-10-04 16:20:00,87.7,64.4,30.05,SW,221,1.0,4.0,46,0.00,,,0.01,Wunderground v.1.15,2013-10-04 20:20:00,
2013-10-04 16:30:00,87.1,65.0,30.05,SSW,202,1.0,3.0,48,0.00,,,0.01,Wunderground v.1.15,2013-10-04 20:30:00,
2013-10-04 16:40:00,86.3,64.9,30.05,SSE,166,2.0,2.0,49,0.00,,,0.01,Wunderground v.1.15,2013-10-04 20:40:00,
2013-10-04 16:50:00,85.7,64.3,30.05,SSE,157,1.0,1.0,49,0.00,,,0.01,Wunderground v.1.15,2013-10-04 20:50:00,
2013-10-04 17:00:00,85.0,64.8,30.05,North,355,0.0,0.0,51,0.00,,,0.01,Wunderground v.1.15,2013-10-04 21:00:00,
2013-10-04 17:10:00,84.8,64.7,30.05,NNW,330,0.0,1.0,51,0.00,,,0.01,Wunderground v.1.15,2013-10-04 21:10:00,
2013-10-04 17:20:00,84.6,65.0,30.05,NNE,15,0.0,0.0,52,0.00,,,0.01,Wunderground v.1.15,2013-10-04 21:20:00,
2013-10-04 17:30:00,84.3,65.8,30.06,NNW,339,0.0,0.0,54,0.00,,,0.01,Wunderground v.1.15,2013-10-04 21:30:00,
2013-10-04 17:40:00,83.5,67.2,30.05,NNW,339,0.0,5.0,58,0.00,,,0.01,Wunderground v.1.15,2013-10-04 21:40:00,
2013-10-04 17:50:00,82.6,66.8,30.06,NNW,339,0.0,5.0,59,0.00,,,0.01,Wunderground v.1.15,2013-10-04 21:50:00,
2013-10-04 18:00:00,81.4,67.1,30.06,NNW,339,0.0,0.0,62,0.00,,,0.01,Wunderground v.1.15,2013-10-04 22:00:00,
2013-10-04 18:10:00,80.1,66.8,30.06,NNW,339,0.0,0.0,64,0.00,,,0.01,Wunderground v.1.15,2013-10-04 22:10:00,
2013-10-04 18:20:00,79.0,67.1,30.06,NNW,339,0.0,0.0,67,0.00,,,0.01,Wunderground v.1.15,2013-10-04 22:20:00,
2013-10-04 18:30:00,78.0,67.0,30.06,ESE,110,0.0,0.0,69,0.00,,,0.01,Wunderground v.1.15,2013-10-04 22:30:00,
2013-10-04 18:40:00,77.3,67.6,30.06,ESE,110,0.0,2.0,72,0.00,,,0.01,Wunderground v.1.15,2013-10-04 22:40:00,
2013-10-04 18:50:00,76.3,67.4,30.06,ESE,110,0.0,2.0,74,0.00,,,0.01,Wunderground v.1.15,2013-10-04 22:50:00,
2013-10-04 19:00:00,75.6,67.5,30.06,ESE,110,0.0,0.0,76,0.00,,,0.01,Wunderground v.1.15,2013-10-04 23:00:00,
2013-10-04 19:10:00,74.9,67.6,30.06,ESE,110,0.0,0.0,78,0.00,,,0.01,Wunderground v.1.15,2013-10-04 23:10:00,
2013-10-04 19:20:00,74.0,67.8,30.07,ESE,110,0.0,0.0,81,0.00,,,0.01,Wunderground v.1.15,2013-10-04 23:20:00,
2013-10-04 19:30:00,73.4,67.2,30.07,ESE,110,0.0,0.0,81,0.00,,,0.01,Wunderground v.1.15,2013-10-04 23:30:00,
2013-10-04 19:40:00,72.7,66.9,30.07,ESE,110,0.0,1.0,82,0.00,,,0.01,Wunderground v.1.15,2013-10-04 23:40:00,
2013-10-04 19:50:00,72.0,66.9,30.07,ESE,110,0.0,1.0,84,0.00,,,0.01,Wunderground v.1.15,2013-10-04 23:50:00,
2013-10-04 20:00:00,71.2,66.5,30.08,ESE,110,0.0,0.0,85,0.00,,,0.01,Wunderground v.1.15,2013-10-05 00:00:00,
2013-10-04 20:10:00,70.8,66.4,30.08,ESE,110,0.0,0.0,86,0.00,,,0.01,Wunderground v.1.15,2013-10-05 00:10:00,
2013-10-04 20:20:00,70.3,66.6,30.08,ESE,110,0.0,0.0,88,0.00,,,0.01,Wunderground v.1.15,2013-10-05 00:20:00,
2013-10-04 20:30:00,70.0,66.6,30.08,ESE,110,0.0,0.0,89,0.00,,,0.01,Wunderground v.1.15,2013-10-05 00:30:00,
2013-10-04 20:40:00,69.6,66.2,30.08,ESE,110,0.0,1.0,89,0.00,,,0.01,Wunderground v.1.15,2013-10-05 00:40:00,
2013-10-04 20:50:00,69.3,66.2,30.09,ESE,110,0.0,1.0,90,0.00,,,0.01,Wunderground v.1.15,2013-10-05 00:50:00,
2013-10-04 21:00:00,69.0,65.9,30.09,ESE,110,0.0,0.0,90,0.00,,,0.01,Wunderground v.1.15,2013-10-05 01:00:00,
2013-10-04 21:10:00,68.7,66.0,30.09,ESE,110,0.0,0.0,91,0.00,,,0.01,Wunderground v.1.15,2013-10-05 01:10:00,
2013-10-04 21:20:00,68.5,66.1,30.09,ESE,110,0.0,0.0,92,0.00,,,0.01,Wunderground v.1.15,2013-10-05 01:20:00,
2013-10-04 21:30:00,68.2,65.8,30.09,ESE,110,0.0,0.0,92,0.00,,,0.01,Wunderground v.1.15,2013-10-05 01:30:00,
2013-10-04 21:40:00,67.9,65.5,30.09,ESE,110,0.0,0.0,92,0.00,,,0.01,Wunderground v.1.15,2013-10-05 01:40:00,
2013-10-04 21:50:00,67.6,65.2,30.09,ESE,110,0.0,0.0,92,0.00,,,0.01,Wunderground v.1.15,2013-10-05 01:50:00,
2013-10-04 22:00:00,67.3,65.2,30.09,ESE,110,0.0,0.0,93,0.00,,,0.01,Wunderground v.1.15,2013-10-05 02:00:00,
2013-10-04 22:10:00,67.1,65.3,30.09,ESE,110,0.0,0.0,94,0.00,,,0.01,Wunderground v.1.15,2013-10-05 02:10:00,
2013-10-04 22:20:00,66.8,65.0,30.09,ESE,110,0.0,0.0,94,0.00,,,0.01,Wunderground v.1.15,2013-10-05 02:20:00,
2013-10-04 22:30:00,66.6,64.8,30.10,ESE,110,0.0,0.0,94,0.00,,,0.01,Wunderground v.1.15,2013-10-05 02:30:00,
2013-10-04 22:40:00,66.3,64.8,30.10,ESE,110,0.0,0.0,95,0.00,,,0.01,Wunderground v.1.15,2013-10-05 02:40:00,
2013-10-04 22:50:00,66.1,64.6,30.10,ESE,110,0.0,0.0,95,0.00,,,0.01,Wunderground v.1.15,2013-10-05 02:50:00,
2013-10-04 23:00:00,65.9,64.4,30.10,ESE,110,0.0,0.0,95,0.00,,,0.01,Wunderground v.1.15,2013-10-05 03:00:00,
2013-10-04 23:10:00,65.8,64.6,30.10,ESE,110,0.0,0.0,96,0.00,,,0.01,Wunderground v.1.15,2013-10-05 03:10:00,
2013-10-04 23:20:00,65.6,64.4,30.10,ESE,110,0.0,0.0,96,0.00,,,0.01,Wunderground v.1.15,2013-10-05 03:20:00,
2013-10-04 23:30:00,65.5,64.3,30.10,ESE,110,0.0,0.0,96,0.00,,,0.01,Wunderground v.1.15,2013-10-05 03:30:00,
2013-10-04 23:40:00,65.3,64.1,30.10,ESE,110,0.0,0.0,96,0.00,,,0.01,Wunderground v.1.15,2013-10-05 03:40:00,
2013-10-04 23:50:00,65.1,63.9,30.10,ESE,110,0.0,0.0,96,0.00,,,0.01,Wunderground v.1.15,2013-10-05 03:50:00,